Regional Weather Roundup
Issued by NWS

Home | Current Version | Previous Version | Graphics & Text | Print | Product List | Glossary On
Versions: 1 2 3 4 5 6 7 8 9 10 11 12 13 14 15 16 17 18 19 20 21 22 23 24 25 26 27 28 29 30 31 32 33 34 35 36 37 38 39 40 41 42 43 44 45 46 47 48 49 50
000
ASUS43 KLMK 020402
RWRKY
KENTUCKY REGIONAL WEATHER ROUNDUP
NATIONAL WEATHER SERVICE LOUISVILLE KY
1200 AM EDT THU OCT 02 2014

NOTE "FAIR" INDICATES FEW OR NO CLOUDS BELOW 12,000 FEET
WITH NO SIGNIFICANT WEATHER AND/OR OBSTRUCTIONS TO VISIBILITY.

KYZ001>023-026-027-061>063-070>075-020500-
WESTERN AND SOUTH CENTRAL KENTUCKY

CITY           SKY/WX    TMP DP  RH WIND       PRES   REMARKS
PADUCAH        PTCLDY    71  60  68 S5        29.90S
HENDERSON      NOT AVBL
OWENSBORO      CLEAR     70  57  63 SE7       29.95S
HOPKINSVILLE   CLEAR     70  60  70 E7        29.95S
BOWLING GREEN  CLEAR     63  56  78 CALM      29.98S
GLASGOW        NOT AVBL
$$

KYZ024-025-028>034-038-045-046-053-020500-
NORTH CENTRAL KENTUCKY

CITY           SKY/WX    TMP DP  RH WIND       PRES   REMARKS
LOUISVILLE/SDF CLEAR     70  58  65 SE6       29.97F
LOUISVILLE/LOU CLEAR     70  58  65 SE3       29.98S
FORT KNOX      CLEAR     66  58  75 E3        29.97S
$$

KYZ035>037-039>044-047>052-055>060-089>105-020500-
NORTHEAST KENTUCKY

CITY           SKY/WX    TMP DP  RH WIND       PRES   REMARKS
LEXINGTON      CLEAR     68  59  73 SE7       30.02S
COVINGTON      PTCLDY    64  50  60 CALM      30.01S
FRANKFORT      CLEAR     66  58  75 SE3       30.00S
$$

KYZ054-064>069-076>088-106>120-020500-
SOUTHEAST KENTUCKY

CITY           SKY/WX    TMP DP  RH WIND       PRES   REMARKS
JACKSON        CLEAR     66  58  75 SE5       30.05S
LONDON         CLEAR     62  58  86 CALM      30.05S
SOMERSET       CLEAR     59  59 100 CALM      30.04F
MIDDLESBORO    CLEAR     56  56  98 CALM      30.07S
MONTICELLO     CLEAR     57  55  93 CALM      30.04S
$$




USA.gov is the U.S. government's official web portal to all federal, state and local government web resources and services.